Marion Regional, IL

6:37 PM CST on November 20, 2019 (GMT -0600)
Williamson County Regional

Weather History for KMWA - October, 2019

Change the Weather History Date:

Sunday, October 13, 2019

  Actual Average Record
Temperature  
Mean Temperature 52 °F -  
Max Temperature 68 °F 71 °F 86 °F (1975)
Min Temperature 37 °F 46 °F 26 °F (1988)
Degree Days  
Heating Degree Days 12    
Growing Degree Days 2 (Base 50)    
Moisture  
Dew Point 37 °F    
Average Humidity 71    
Maximum Humidity 91    
Minimum Humidity 33    
Precipitation  
Precipitation 0.00 in - - ()
Sea Level Pressure  
Sea Level Pressure 30.01 in    
Wind  
Wind Speed 5 mph (SSW)    
Max Wind Speed 12 mph    
Max Gust Speed -    
Visibility 13 miles    
Events      
Averages and records for this station are not official NWS values.
T = Trace of Precipitation, MM = Missing Value Source: NWS Daily Summary

Daily Weather History Graph

Daily Weather History Graph

Search for Another Location

Airport or City:

Astronomy

Oct. 13, 2019 Rise Set
Actual Time 7:02 AM CDT 6:21 PM CDT
Civil Twilight 6:35 AM CDT 6:48 PM CDT
Nautical Twilight 6:05 AM CDT 7:18 PM CDT
Astronomical Twilight 5:35 AM CDT 7:48 PM CDT
Moon 6:43 PM CDT (10/13) 6:37 AM CDT (10/13)
Length of Visible Light 12h 12m
Length of Day
11h 19m
Full, 100% of the Moon is Illuminated
Oct 13
Full
Oct 13
Full
Oct 21
Last Quarter
Oct 27
New
Nov 4
First Quarter

Hourly Weather History & Observations

Time (CDT) Temp. Windchill Dew Point Humidity Pressure Visibility Wind Dir Wind Speed Gust Speed Precip Events Conditions
12:15 AM 39.2 °F - 36.0 °F 88% 30.06 in 10.0 mi Calm Calm - N/A   Clear
12:35 AM 40.8 °F 37.8 °F 36.1 °F 83% 30.05 in 10.0 mi SSW 4.6 mph - N/A   Clear
12:55 AM 38.7 °F 34.3 °F 34.3 °F 84% 30.05 in 10.0 mi South 5.8 mph - N/A   Clear
1:15 AM 41.0 °F 39.0 °F 35.4 °F 81% 30.04 in 10.0 mi South 3.5 mph - N/A   Clear
1:35 AM 38.8 °F 34.6 °F 34.7 °F 85% 30.04 in 10.0 mi South 5.8 mph - N/A   Clear
1:55 AM 41.7 °F 38.0 °F 35.8 °F 79% 30.03 in 10.0 mi South 5.8 mph - N/A   Clear
2:15 AM 38.7 °F 34.3 °F 34.2 °F 84% 30.03 in 10.0 mi South 5.8 mph - N/A   Clear
2:35 AM 39.2 °F 35.9 °F 34.7 °F 84% 30.03 in 10.0 mi South 4.6 mph - N/A   Clear
2:55 AM 40.3 °F 38.2 °F 35.4 °F 83% 30.02 in 10.0 mi SSW 3.5 mph - N/A   Clear
3:15 AM 38.7 °F 35.2 °F 34.9 °F 86% 30.02 in 10.0 mi South 4.6 mph - N/A   Clear
3:35 AM 38.8 °F 36.5 °F 35.4 °F 88% 30.02 in 10.0 mi SSW 3.5 mph - N/A   Clear
3:55 AM 38.1 °F 35.7 °F 35.2 °F 89% 30.03 in 10.0 mi South 3.5 mph - N/A   Clear
4:15 AM 38.1 °F - 34.9 °F 88% 30.03 in 10.0 mi Calm Calm - N/A   Clear
4:35 AM 38.1 °F 34.6 °F 35.6 °F 91% 30.03 in 10.0 mi SSW 4.6 mph - N/A   Clear
4:55 AM 38.1 °F 33.7 °F 34.9 °F 88% 30.03 in 10.0 mi SSW 5.8 mph - N/A   Clear
5:15 AM 38.5 °F 33.4 °F 35.1 °F 87% 30.03 in 10.0 mi South 6.9 mph - N/A   Clear
5:35 AM 37.9 °F 33.5 °F 34.9 °F 89% 30.03 in 10.0 mi SSW 5.8 mph - N/A   Clear
5:55 AM 37.0 °F 32.4 °F 34.7 °F 91% 30.03 in 10.0 mi South 5.8 mph - N/A   Clear
6:15 AM 37.4 °F 32.8 °F 35.1 °F 91% 30.03 in 10.0 mi South 5.8 mph - N/A   Clear
6:35 AM 37.6 °F 34.0 °F 35.1 °F 91% 30.03 in 10.0 mi SSW 4.6 mph - N/A   Clear
6:57 AM 39.2 °F 37.0 °F 35.6 °F 87% 30.02 in 20.0 mi SSE 3.5 mph - N/A   Clear
7:46 AM 42.8 °F 40.1 °F 37.4 °F 81% 30.03 in 20.0 mi SSW 4.6 mph - N/A   Scattered Clouds
8:46 AM 48.2 °F - 39.2 °F 71% 30.03 in 20.0 mi SSW 5.8 mph - N/A   Partly Cloudy
9:46 AM 55.4 °F - 39.2 °F 54% 30.03 in 20.0 mi SW 9.2 mph - N/A   Clear
11:02 AM 57.2 °F - 37.4 °F 48% 30.03 in 20.0 mi SW 10.4 mph - N/A   Clear
11:46 AM 62.6 °F - 37.4 °F 39% 30.02 in 20.0 mi SSW 6.9 mph - N/A   Clear
12:46 PM 64.4 °F - 37.4 °F 37% 30.00 in 20.0 mi SW 11.5 mph - N/A   Clear
1:46 PM 66.2 °F - 39.2 °F 37% 29.97 in 20.0 mi SW 11.5 mph - N/A   Clear
2:46 PM 68.0 °F - 37.4 °F 33% 29.96 in 20.0 mi SW 11.5 mph - N/A   Clear
3:46 PM 68.0 °F - 37.4 °F 33% 29.96 in 20.0 mi SW 11.5 mph - N/A   Clear
4:46 PM 66.2 °F - 37.4 °F 35% 29.95 in 20.0 mi SW 11.5 mph - N/A   Clear
5:46 PM 64.4 °F - 39.2 °F 40% 29.95 in 20.0 mi SW 11.5 mph - N/A   Clear
6:46 PM 55.4 °F - 41.0 °F 58% 29.96 in 20.0 mi South 5.8 mph - N/A   Clear
7:15 PM 53.4 °F - 40.8 °F 62% 29.97 in 10.0 mi SSW 5.8 mph - N/A   Clear
7:35 PM 52.9 °F - 40.1 °F 62% 29.98 in 10.0 mi SSW 5.8 mph - N/A   Clear
7:55 PM 52.7 °F - 40.3 °F 63% 29.99 in 10.0 mi SSW 6.9 mph - N/A   Clear
8:15 PM 52.7 °F - 40.5 °F 63% 29.99 in 10.0 mi SSW 6.9 mph - N/A   Clear
8:35 PM 50.0 °F - 39.6 °F 67% 30.00 in 10.0 mi SSW 5.8 mph - N/A   Clear
8:55 PM 49.5 °F - 39.2 °F 68% 30.00 in 10.0 mi SSW 6.9 mph - N/A   Clear
9:15 PM 49.5 °F - 38.8 °F 67% 30.00 in 10.0 mi SSW 6.9 mph - N/A   Clear
9:35 PM 48.6 °F - 39.2 °F 70% 30.00 in 10.0 mi SSW 5.8 mph - N/A   Clear
9:55 PM 49.1 °F - 39.4 °F 69% 30.01 in 10.0 mi SSW 5.8 mph - N/A   Clear
10:15 PM 47.5 °F - 39.0 °F 72% 30.01 in 10.0 mi SSW 6.9 mph - N/A   Clear
10:35 PM 48.0 °F - 38.8 °F 71% 30.02 in 10.0 mi SSW 5.8 mph - N/A   Clear
10:55 PM 48.2 °F - 39.0 °F 71% 30.02 in 10.0 mi SSW 5.8 mph - N/A   Clear
11:15 PM 47.3 °F - 38.8 °F 72% 30.02 in 10.0 mi SSW 6.9 mph - N/A   Clear
11:35 PM 50.5 °F - 39.0 °F 65% 30.02 in 10.0 mi SSW 6.9 mph - N/A   Clear
11:55 PM 52.9 °F - 39.4 °F 60% 30.02 in 10.0 mi SW 4.6 mph - N/A   Clear